Overview Statistics Trail Chart Weather Telemetry Raw packets
 

This is the latest recevied weather packets stored in our database for station/object N0KWA. If no packets are shown the sender has not sent any weather packets the latest 10 day(s).

<< 68 69 70 71 72 73 74 >>
Time Temp. Humidity Pressure Rain* Wind** Luminosity Snow
1787943643 32.22° C 72% 1018 hPa 0 mm - 42 W/m² -
1787943342 32.22° C 72% 1018 hPa 0 mm - 35 W/m² -
1787943038 31.67° C 76% 1018.3 hPa 0 mm - 167 W/m² -
1787942732 31.11° C 78% 1018.3 hPa 0 mm - 70 W/m² -
1787942434 31.11° C 79% 1018.2 hPa 0 mm - 38 W/m² -
1787942126 31.11° C 78% 1018.3 hPa 0 mm - 7 W/m² -
1787941823 31.67° C 75% 1018.4 hPa 0 mm - 8 W/m² -
1787941521 31.67° C 74% 1018.4 hPa 0 mm - 36 W/m² -
1787941216 31.67° C 75% 1018.5 hPa 0 mm - 743 W/m² -
1787940914 31.11° C 77% 1018.6 hPa 0 mm - 38 W/m² -
1787940608 31.11° C 78% 1018.5 hPa 0 mm - 49 W/m² -
1787940303 31.67° C 76% 1018.5 hPa 0 mm - 26 W/m² -
1787940001 31.67° C 75% 1018.4 hPa 0 mm - 36 W/m² -
1787939696 31.67° C 75% 1018.5 hPa 0 mm - 37 W/m² -
1787939395 31.67° C 74% 1018.6 hPa 0 mm - 34 W/m² -
1787939091 31.67° C 72% 1018.6 hPa 0 mm - 42 W/m² -
1787938790 31.67° C 74% 1018.8 hPa 0 mm - 35 W/m² -
1787938486 31.67° C 75% 1018.8 hPa 0 mm - 246 W/m² -
1787938181 31.67° C 74% 1018.9 hPa 0 mm - 52 W/m² -
1787937876 31.67° C 73% 1018.6 hPa 0 mm - 368 W/m² -
1787937572 31.67° C 76% 1018.9 hPa 0 mm - 39 W/m² -
1787937267 31.11° C 76% 1018.8 hPa 0 mm - 150 W/m² -
1787936963 31.11° C 75% 1018.8 hPa 0 mm - 37 W/m² -
1787936662 31.11° C 76% 1019.1 hPa 0 mm - 40 W/m² -
1787936357 31.11° C 77% 1018.8 hPa 0 mm - 56 W/m² -

* Rain latest hour (hover to see other rain measurements)
** Current wind speed in m/s (hover to see current wind gust speed)